Flag for U.S.A. Weather past 2 weeks in Orlando, Florida, U.S.A.

Now
71 °F

Passing clouds.


Feels Like: 70 °F
Forecast: 71 / 77 °F
Wind: 3 mph from Northeast

Location: Orlando Executive Airport

Current Time: Apr 28, 2015 at 6:45:53 AM

Latest Report: Apr 28, 2015 at 5:53 AM


Visibility: 10 mi

Pressure: 29.82 "Hg

Humidity: 84%

Dew point: 66 °F

Location of OrlandoLocation

Historic Weather in Orlando — Graph

°F

Orlando temperature yesterday

Maximum temperature yesterday: 81 °F (at 3:53 PM)
Minimum temperature yesterday: 73 °F (at 10:53 PM)
Average temperature yesterday: 78 °F

Past Weeks' High & Low Weather Summary

 TemperatureHumidityPressure
High90 °F (Apr 19, 1:53 PM)97% (Apr 17, 6:53 AM)30.20 "Hg (Apr 17, 6:53 AM)
Low67 °F (Apr 20, 6:53 PM)30% (Apr 22, 4:53 PM)29.72 "Hg (Apr 26, 4:53 PM)
Average77 °F74%29.97 "Hg
* Reported Apr 13 5:53 AM — Apr 28 5:53 AM, Orlando, Weather by CustomWeather, © 2015

Note: Actual official high and low records may vary slightly from our data, if they occured in-between our weather recording intervals... More about our weather records

Advertising

Orlando weather history for previous 24 hours

 ConditionsComfort  
Time TempWeatherWind HumidityBarometerVisibility
5:53 AM
Tue, Apr 28
71 °FPassing clouds.3 mph84%29.82 "Hg10 mi
4:53 AM70 °FPassing clouds.3 mph87%29.82 "Hg10 mi
3:53 AM71 °FPassing clouds.3 mph81%29.81 "Hg10 mi
2:53 AM70 °FPassing clouds.3 mph87%29.81 "Hg10 mi
1:53 AM71 °FPassing clouds.7 mph81%29.80 "Hg10 mi
12:53 AM72 °FPassing clouds.5 mph76%29.87 "Hg10 mi
11:53 PM
Mon, Apr 27
73 °FClear.3 mph71%29.86 "Hg10 mi
10:53 PM73 °FPassing clouds.8 mph74%29.89 "Hg10 mi
9:53 PM75 °FClear.10 mph69%29.87 "Hg10 mi
8:53 PM75 °FPassing clouds.9 mph69%29.87 "Hg10 mi
7:53 PM77 °FScattered clouds.9 mph62%29.85 "Hg10 mi
6:53 PM78 °FSunny.10 mph64%29.81 "Hg10 mi
5:53 PM79 °FPassing clouds.10 mph65%29.83 "Hg10 mi
4:53 PM80 °FScattered clouds.9 mph60%29.82 "Hg10 mi
3:53 PM81 °FSunny.17 mph60%29.83 "Hg9 mi
2:53 PM80 °FPassing clouds.20 mph62%29.82 "Hg10 mi
1:53 PM80 °FSunny.8 mph62%29.80 "Hg10 mi
12:53 PM77 °FLight rain. Broken clouds.13 mph69%29.82 "Hg10 mi
11:53 AM79 °FPassing clouds.9 mph62%29.83 "Hg10 mi
10:53 AM77 °FPassing clouds.8 mph66%29.83 "Hg10 mi
9:53 AM78 °FScattered clouds.20 mph64%29.85 "Hg10 mi
8:53 AM77 °FPassing clouds.12 mph66%29.82 "Hg10 mi
7:53 AM77 °FScattered clouds.15 mph66%29.81 "Hg10 mi
6:53 AM78 °FPassing clouds.14 mph66%29.77 "Hg10 mi
Weather by CustomWeather, © 2015

See weather overviewHow to use our weather pages